Showing default

ICEYE X82, 68996

AKA "ICEYE-X82" on Space-Track | Orbit data source: Space-Track

ICEYE X82, 68996 is a payload satellite owned by ICEYE (PT) in SSO that was launched on Sun, 03 May 2026 UTC via an FALCON 9 launch vehicle from the Air Force Western Test Range (AFWTR). Payload-class satellites include a variety of spacecraft equipped with specific instruments for various scientific and technological missions. These include communications satellites like Starlink; space stations such as the ISS; scientific satellites like the Hubble; Earth observation satellites from companies like Planet Labs, Umbra, and HawkEye 360; GPS; miniature CubeSats for education and research; and military/defense satellites.

Loading next visibility...
Identifier
68996, 2026-100S
Orbit
SSO
Country
Flag of PTPT / POR
Related business
Manufacturer
ICEYE
Mission
Operational spacecraft
Bus & Motor
ICEYE, Unknown motor
Mass
120 kg wet, 120 kg dry
Launch date (UTC)
2026-05-03 (2 months ago)
Launch vehicle
FALCON 9
Launch site
Air Force Western Test Range (AFWTR)
Object type
Payload
Rocket body
Debris
Shape & HBR
Unknown shape, 14.5 m
Radar Cross Section
Medium (>0.1 m² and <1 m²)

Expand to show TLE details & history
Last TLE update: 14 hours ago

TLE from 14 hours ago
0 ICEYE X82
1 68996U 26100S   26175.20166422  .00002207  00000-0  22690-3 0  9994
2 68996  97.7356  72.4868 0005573 113.8564 246.3239 14.91329932  7740
Epoch: 2026-06-24T04:50Z
TLE epoch observation values (Epoch: 2026-06-24T04:50:23.788Z)
Latitude
-0.00004°
Longitude
87.52542°
Altitude
598.392 km
Speed
7.56 km/s
True Right ascension
04h 49m 56s
True Declination
0° 00' 00"
Sunlit
Object was in daylight at epoch
Visualization orbit readout
Latitude
Unknown
Longitude
Unknown
Altitude
Unknown
Speed
Unknown
Apparent Right ascension
Unknown
Apparent Declination
Unknown
Sunlit
N/A
Visualization observer readout
Local Sidereal Time
06:05:35
Azimuth
Unknown
Elevation
Unknown
Doppler factor
Unknown
Orbital elements
Apogee altitude
594.69 km
Perigee altitude
586.922 km
Semi-major axis
6,968.943 km
Eccentricity
0.00056
Inclination
97.7356°
RAAN
72.4868°
Arg. of periapsis
113.8564°
True anomaly
246.26543°
Mean anomaly
246.3239°
Eccentric anomaly
246.29466°
Mean motion
3.73072 °/min
Orbital period
96.5 mins
BSTAR
0.0002269
Loading maneuver chart data...
Computing Atmospheric mass density...
Loading historical data...
Loading historical data...
Loading historical data...
Loading historical data...
Loading historical data...
Loading historical data...
Loading historical data...

Documentation

Showing up to 5 results
|